When you browse on this site, cookies collect data to enhance your experience and personalize the content and advertising you see.
Visit our Privacy Policy to learn more. By continuing to use the site, you agree to this use of cookies and data.
  • In Hungary
  • List of Countries
  • For 7 days
  • Water Temperature
  • Satellite Maps
  • Weather Map
  • News
  • Weather Widgets
  • user-avatar
    Login

    Hourly Weather Newport

    Today, 22 February, Friday

    Time Temperature Precipitation Wind Pressure Humidity
    00:00 +7°C° 0 mm 2 mps 770 mmHg 91%
    01:00 +7°C° 0 mm 2 mps 770 mmHg 90%
    02:00 +7°C° 0 mm 2 mps 770 mmHg 90%
    03:00 +8°C° 0 mm 1 mps 770 mmHg 89%
    04:00 +7°C° 0 mm 2 mps 770 mmHg 89%
    05:00 +7°C° 0 mm 2 mps 770 mmHg 89%
    06:00 +6°C° 0 mm 4 mps 771 mmHg 89%
    07:00 +6°C° 0 mm 4 mps 771 mmHg 88%
    08:00 +7°C° 0 mm 4 mps 771 mmHg 86%
    09:00 +8°C° 0 mm 4 mps 771 mmHg 84%
    10:00 +10°C° 0 mm 4 mps 772 mmHg 80%
    11:00 +10°C° 0 mm 4 mps 772 mmHg 77%
    12:00 +11°C° 0 mm 4 mps 772 mmHg 74%
    13:00 +11°C° 0 mm 4 mps 772 mmHg 73%
    14:00 +11°C° 0 mm 4 mps 772 mmHg 72%
    15:00 +11°C° 0 mm 4 mps 772 mmHg 70%
    16:00 +10°C° 0 mm 4 mps 771 mmHg 74%
    17:00 +8°C° 0 mm 4 mps 771 mmHg 78%
    18:00 +7°C° 0 mm 4 mps 771 mmHg 82%
    19:00 +7°C° 0 mm 4 mps 771 mmHg 82%
    20:00 +7°C° 0 mm 4 mps 771 mmHg 82%
    21:00 +7°C° 0 mm 4 mps 771 mmHg 82%
    22:00 +8°C° 0 mm 5 mps 771 mmHg 84%
    23:00 +8°C° 0 mm 5 mps 771 mmHg 85%

    Tomorrow, 23 February, Saturday

    Time Temperature Precipitation Wind Pressure Humidity
    00:00 +8°C° 0 mm 5 mps 771 mmHg 87%
    01:00 +8°C° 0 mm 5 mps 771 mmHg 88%
    02:00 +8°C° 0 mm 5 mps 770 mmHg 89%
    03:00 +9°C° 0 mm 5 mps 770 mmHg 89%
    04:00 +8°C° 0 mm 5 mps 770 mmHg 91%
    05:00 +8°C° 0 mm 5 mps 770 mmHg 92%
    06:00 +8°C° 0 mm 4 mps 770 mmHg 94%
    07:00 +8°C° 0 mm 4 mps 770 mmHg 92%
    08:00 +9°C° 0 mm 5 mps 770 mmHg 89%
    09:00 +9°C° 0 mm 5 mps 771 mmHg 87%
    10:00 +10°C° 0 mm 5 mps 771 mmHg 83%
    11:00 +12°C° 0 mm 5 mps 771 mmHg 79%
    12:00 +12°C° 0 mm 5 mps 771 mmHg 75%
    13:00 +12°C° 0 mm 5 mps 770 mmHg 74%
    14:00 +12°C° 0 mm 5 mps 770 mmHg 74%
    15:00 +10°C° 0 mm 5 mps 770 mmHg 74%
    16:00 +10°C° 0 mm 4 mps 770 mmHg 78%
    17:00 +8°C° 0 mm 4 mps 770 mmHg 82%
    18:00 +8°C° 0 mm 3 mps 770 mmHg 87%
    19:00 +8°C° 0 mm 3 mps 770 mmHg 87%
    20:00 +8°C° 0 mm 3 mps 771 mmHg 88%
    21:00 +8°C° 0 mm 3 mps 771 mmHg 88%
    22:00 +8°C° 0 mm 3 mps 771 mmHg 88%
    23:00 +8°C° 0 mm 3 mps 771 mmHg 87%

    Day after tomorrow, 24 February, Sunday

    Time Temperature Precipitation Wind Pressure Humidity
    00:00 +7°C° 0 mm 4 mps 771 mmHg 87%
    01:00 +7°C° 0 mm 4 mps 771 mmHg 87%
    02:00 +8°C° 0 mm 3 mps 771 mmHg 87%
    03:00 +8°C° 0 mm 3 mps 771 mmHg 86%
    04:00 +7°C° 0 mm 3 mps 771 mmHg 86%
    05:00 +7°C° 0 mm 3 mps 771 mmHg 86%
    06:00 +6°C° 0 mm 4 mps 771 mmHg 85%
    07:00 +6°C° 0 mm 4 mps 772 mmHg 82%
    08:00 +7°C° 0 mm 4 mps 772 mmHg 78%
    09:00 +8°C° 0 mm 4 mps 772 mmHg 75%
    10:00 +8°C° 0 mm 4 mps 772 mmHg 70%
    11:00 +10°C° 0 mm 4 mps 772 mmHg 66%
    12:00 +11°C° 0 mm 4 mps 773 mmHg 61%
    13:00 +11°C° 0 mm 4 mps 772 mmHg 61%
    14:00 +11°C° 0 mm 4 mps 772 mmHg 61%
    15:00 +11°C° 0 mm 4 mps 772 mmHg 61%
    16:00 +10°C° 0 mm 4 mps 772 mmHg 65%
    17:00 +7°C° 0 mm 4 mps 772 mmHg 69%
    18:00 +6°C° 0 mm 4 mps 773 mmHg 73%
    19:00 +7°C° 0 mm 3 mps 773 mmHg 73%
    20:00 +7°C° 0 mm 3 mps 773 mmHg 73%
    21:00 +5°C° 0 mm 3 mps 773 mmHg 73%
    22:00 +5°C° 0 mm 3 mps 773 mmHg 75%
    23:00 +6°C° 0 mm 2 mps 774 mmHg 77%

    25 February, Monday

    Time Temperature Precipitation Wind Pressure Humidity
    00:00 +6°C° 0 mm 2 mps 774 mmHg 78%
    01:00 +6°C° 0 mm 2 mps 774 mmHg 79%
    02:00 +5°C° 0 mm 3 mps 774 mmHg 80%
    03:00 +5°C° 0 mm 3 mps 773 mmHg 81%
    04:00 +5°C° 0 mm 3 mps 773 mmHg 81%
    05:00 +5°C° 0 mm 3 mps 773 mmHg 81%
    06:00 +5°C° 0 mm 3 mps 773 mmHg 81%
    07:00 +7°C° 0 mm 3 mps 773 mmHg 79%
    08:00 +7°C° 0 mm 4 mps 774 mmHg 76%
    09:00 +8°C° 0 mm 4 mps 774 mmHg 74%
    10:00 +10°C° 0 mm 4 mps 774 mmHg 70%
    11:00 +11°C° 0 mm 3 mps 774 mmHg 65%
    12:00 +12°C° 0 mm 3 mps 774 mmHg 61%
    13:00 +12°C° 0 mm 3 mps 774 mmHg 61%
    14:00 +12°C° 0 mm 3 mps 773 mmHg 62%
    15:00 +12°C° 0 mm 4 mps 773 mmHg 62%
    16:00 +11°C° 0 mm 4 mps 773 mmHg 66%
    17:00 +10°C° 0 mm 4 mps 773 mmHg 70%
    18:00 +7°C° 0 mm 4 mps 773 mmHg 74%
    19:00 +7°C° 0 mm 4 mps 773 mmHg 74%
    20:00 +7°C° 0 mm 5 mps 773 mmHg 74%
    21:00 +7°C° 0 mm 5 mps 773 mmHg 73%
    22:00 +7°C° 0 mm 5 mps 773 mmHg 76%
    23:00 +7°C° 0 mm 4 mps 772 mmHg 78%

    26 February, Tuesday

    Time Temperature Precipitation Wind Pressure Humidity
    00:00 +7°C° 0 mm 4 mps 772 mmHg 80%
    01:00 +7°C° 0 mm 4 mps 772 mmHg 82%
    02:00 +6°C° 0 mm 4 mps 772 mmHg 83%
    03:00 +6°C° 0 mm 4 mps 771 mmHg 85%
    04:00 +6°C° 0 mm 4 mps 771 mmHg 85%
    05:00 +6°C° 0 mm 4 mps 771 mmHg 86%
    06:00 +6°C° 0 mm 5 mps 771 mmHg 86%
    07:00 +7°C° 0 mm 5 mps 771 mmHg 83%
    08:00 +7°C° 0 mm 6 mps 771 mmHg 81%
    09:00 +8°C° 0 mm 6 mps 771 mmHg 78%
    10:00 +9°C° 0 mm 6 mps 770 mmHg 75%
    11:00 +10°C° 0 mm 6 mps 770 mmHg 73%
    12:00 +11°C° 0 mm 6 mps 770 mmHg 70%
    13:00 +10°C° 0 mm 6 mps 770 mmHg 71%
    14:00 +10°C° 0 mm 6 mps 769 mmHg 72%
    15:00 +10°C° 0 mm 6 mps 769 mmHg 73%
    16:00 +9°C° 0 mm 5 mps 769 mmHg 78%
    17:00 +8°C° 0 mm 4 mps 769 mmHg 83%
    18:00 +8°C° 0 mm 3 mps 769 mmHg 88%
    19:00 +8°C° 0 mm 3 mps 769 mmHg 89%
    20:00 +8°C° 0 mm 3 mps 769 mmHg 90%
    21:00 +8°C° 0 mm 3 mps 769 mmHg 91%
    22:00 +9°C° 0 mm 3 mps 769 mmHg 91%
    23:00 +9°C° 0 mm 3 mps 769 mmHg 91%

    27 February, Wednesday

    Time Temperature Precipitation Wind Pressure Humidity
    00:00 +9°C° 0 mm 2 mps 769 mmHg 91%
    01:00 +9°C° 0 mm 2 mps 769 mmHg 92%
    02:00 +9°C° 0 mm 2 mps 768 mmHg 92%
    03:00 +9°C° 0 mm 2 mps 768 mmHg 93%
    04:00 +9°C° 0 mm 2 mps 768 mmHg 92%
    05:00 +9°C° 0 mm 2 mps 768 mmHg 92%
    06:00 +10°C° 0 mm 1 mps 768 mmHg 91%
    07:00 +11°C° 0 mm 1 mps 768 mmHg 87%
    08:00 +10°C° 0 mm 2 mps 768 mmHg 83%
    09:00 +12°C° 0 mm 2 mps 768 mmHg 79%
    10:00 +13°C° 0 mm 2 mps 768 mmHg 73%
    11:00 +14°C° 0 mm 2 mps 767 mmHg 67%
    12:00 +14°C° 0 mm 3 mps 767 mmHg 61%
    13:00 +14°C° 0 mm 3 mps 767 mmHg 62%
    14:00 +15°C° 0 mm 2 mps 766 mmHg 62%
    15:00 +15°C° 0 mm 2 mps 766 mmHg 62%
    16:00 +13°C° 0 mm 2 mps 766 mmHg 66%
    17:00 +12°C° 0 mm 2 mps 766 mmHg 71%
    18:00 +10°C° 0 mm 2 mps 765 mmHg 75%
    19:00 +10°C° 0 mm 1 mps 765 mmHg 77%
    20:00 +10°C° 0 mm 1 mps 765 mmHg 78%
    21:00 +10°C° 0 mm 1 mps 765 mmHg 79%
    22:00 +10°C° 0 mm 1 mps 765 mmHg 81%
    23:00 +9°C° 0 mm 1 mps 765 mmHg 82%
    Show more